Regional Weather Roundup
Issued by NWS

Home | Current Version | Previous Version | Graphics & Text | Print | Product List | Glossary On
Versions: 1 2 3 4 5 6 7 8 9 10 11 12 13 14 15 16 17 18 19 20 21 22 23 24 25 26 27 28 29 30 31 32 33 34 35 36 37 38 39 40 41 42 43 44 45 46 47 48 49 50
000
ASUS43 KLMK 171802
RWRKY
KENTUCKY REGIONAL WEATHER ROUNDUP
NATIONAL WEATHER SERVICE LOUISVILLE KY
200 PM EDT WED SEP 17 2014

NOTE "FAIR" INDICATES FEW OR NO CLOUDS BELOW 12,000 FEET
WITH NO SIGNIFICANT WEATHER AND/OR OBSTRUCTIONS TO VISIBILITY.

KYZ001>023-026-027-061>063-070>075-171900-
WESTERN AND SOUTH CENTRAL KENTUCKY

CITY           SKY/WX    TMP DP  RH WIND       PRES   REMARKS
PADUCAH        FAIR      69  55  60 E5        30.02F
HENDERSON      PTSUNNY   70  52  52 SW9       30.05F
OWENSBORO      MOSUNNY   69  53  56 CALM      30.05F
HOPKINSVILLE   MOSUNNY   69  55  62 VRB1      30.04S
BOWLING GREEN  MOSUNNY   68  54  60 VRB3      30.03F
GLASGOW        MOSUNNY   69  52  54 SE3       30.02F
$$

KYZ024-025-028>034-038-045-046-053-171900-
NORTH CENTRAL KENTUCKY

CITY           SKY/WX    TMP DP  RH WIND       PRES   REMARKS
LOUISVILLE/SDF MOSUNNY   68  51  54 VRB3      30.03F
LOUISVILLE/LOU MOSUNNY   67  50  54 W6        30.03F
FORT KNOX      MOSUNNY   68  53  57 SW6       30.02S
$$

KYZ035>037-039>044-047>052-055>060-089>105-171900-
NORTHEAST KENTUCKY

CITY           SKY/WX    TMP DP  RH WIND       PRES   REMARKS
LEXINGTON      MOSUNNY   68  50  52 CALM      30.03F
COVINGTON      PTSUNNY   64  49  57 CALM      30.05S
FRANKFORT      MOSUNNY   68  51  54 CALM      30.01F
$$

KYZ054-064>069-076>088-106>120-171900-
SOUTHEAST KENTUCKY

CITY           SKY/WX    TMP DP  RH WIND       PRES   REMARKS
JACKSON        PTSUNNY   66  53  63 VRB3      30.03S
LONDON         MOSUNNY   70  53  54 W9        30.03S
SOMERSET       NOT AVBL
MIDDLESBORO    PTSUNNY   72  57  57 N6        30.00F
MONTICELLO     CLEAR     70  52  52 W6        30.03F
$$




USA.gov is the U.S. government's official web portal to all federal, state and local government web resources and services.